Home > Time Zones > World Clock > Weather > Oman > Seeb > Past weeks

Flag for Oman Weather past 2 weeks in Seeb, Oman

Now
88 °F

Clear.


Feels Like: 112 °F
Forecast: 90 / 97 °F
Wind: 5 mph from Northeast

Location: International Airport

Current Time: Sep 2, 2015 at 2:43:59 AM

Latest Report: Sep 2, 2015 at 1:50 AM


Visibility: 5 mi

Pressure: 29.56 "Hg

Humidity: 89%

Dew point: 84 °F

Location of SeebLocation

Historic Weather in Seeb — Graph

°F

Seeb temperature yesterday

Maximum temperature yesterday: 102 °F (at 8:50 AM)
Minimum temperature yesterday: 88 °F (at 2:50 AM)
Average temperature yesterday: 92 °F

Past Weeks' High & Low Weather Summary

 TemperatureHumidityPressure
High113 °F (Aug 23, 11:50 AM)94% (Aug 30, 12:50 AM)29.71 "Hg (Aug 30, 12:50 AM)
Low86 °F (Aug 18, 6:50 AM)20% (Aug 23, 11:50 AM)29.50 "Hg (Aug 23, 1:50 PM)
Average94 °F62%29.59 "Hg
* Reported Aug 18 6:50 AM — Sep 2 12:50 AM, Seeb, Weather by CustomWeather, © 2015

Note: Actual official high and low records may vary slightly from our data, if they occured in-between our weather recording intervals... More about our weather records

Advertising

Seeb weather history for previous 24 hours

 ConditionsComfort  
Time TempWeatherWind HumidityBarometerVisibility
12:50 AM
Wed, Sep 2
88 °FClear.2 mph84%29.56 "Hg5 mi
11:50 PM
Tue, Sep 1
90 °FClear.3 mph75%29.56 "Hg5 mi
10:50 PM91 °FClear.2 mph52%29.56 "Hg5 mi
9:50 PM91 °FClear.1 mph59%29.56 "Hg5 mi
8:50 PM90 °FClear.3 mph67%29.56 "Hg5 mi
7:50 PM90 °FRain. Overcast.5 mph67%29.56 "HgN/A
6:50 PM90 °FClear.7 mph71%29.56 "Hg5 mi
5:50 PM90 °FClear.9 mph75%29.56 "Hg5 mi
4:50 PM91 °FClear.12 mph71%29.59 "Hg5 mi
3:50 PM93 °FClear.14 mph67%29.59 "Hg5 mi
2:50 PM93 °FClear.14 mph71%29.59 "Hg5 mi
1:50 PM93 °FLight fog.15 mph75%29.62 "Hg5 mi
1:00 PM95 °FClear.14 mph67%29.62 "Hg5 mi
11:50 AM100 °FClear.13 mph40%29.65 "Hg5 mi
10:50 AM102 °FClear.7 mph31%29.65 "Hg5 mi
9:50 AM97 °FClear.7 mph63%29.65 "Hg5 mi
8:50 AM102 °FClear.5 mph27%29.65 "Hg5 mi
7:50 AM95 °FClear.5 mph50%29.65 "Hg5 mi
6:50 AM90 °FClear.5 mph75%29.62 "Hg5 mi
5:50 AM88 °FClear.6 mph79%29.62 "Hg4 mi
4:50 AM88 °FClear.5 mph84%29.59 "Hg4 mi
3:50 AM88 °FPassing clouds.7 mph84%29.59 "Hg4 mi
2:50 AM88 °FPassing clouds.9 mph84%29.59 "Hg4 mi
Weather by CustomWeather, © 2015

See weather overviewHow to use our weather pages